User: anonymous   Login
Location: Seminole
(32.7190°N, 102.6440°W)
Time: 09:41:32
(UTC-05:00)
Language:

Meteor 2-10 - Orbit

View from above orbital plane
View from above orbital plane
View from above satellite
View from above satellite

Ground track
Ground track

The orbit data is extracted from the following two-line orbital elements,

1 14452U 83109A   14296.58237662  .00000239  00000-0  91008-4 0  6339
2 14452 081.1618 332.8825 0089736 307.8169 051.4910 14.26266553611087
Epoch (UTC): 23 October 2014 13:58:37
Eccentricity: 0.0089736
inclination: 81.1618°
perigee height: 740 km
apogee height: 868 km
right ascension of ascending node: 332.8825°
argument of perigee: 307.8169°
revolutions per day: 14.26266553
mean anomaly at epoch: 51.4910°
orbit number at epoch: 61108

The dashed part of the orbit path shows where the satellite is in the earth's shadow,  

DLR